Simultaneous Nadir Overpasses (SNOs) Predictions

Prediction of SNOs between GOES-16 and NPP Satellite Orbit:

Table of predicted SNOs for the next 14.0 days since TLE Epoch: 6/21/2019
Index Date Time (GOES-16) GOES-16 Lat,Lon NPP Lat,Lon Distance(km) Time Diff (sec)
1 06/22/2019 06:17:23 -0.01, -75.19 -0.41, -73.49 194.85 80
2 06/23/2019 18:39:19 -0.00, -75.20 -0.80, -78.79 408.71 80
3 06/24/2019 18:23:14 -0.01, -75.20 0.20, -74.25 108.33 80
4 06/26/2019 06:45:03 0.01, -75.21 0.98, -79.52 491.41 80
5 06/27/2019 06:23:38 0.01, -75.22 -0.02, -74.99 25.73 80
6 06/29/2019 18:26:51 -0.00, -75.24 -0.13, -75.77 60.43 80
7 06/30/2019 18:10:47 0.01, -75.25 0.88, -71.24 456.79 80
8 07/02/2019 06:32:36 -0.01, -75.26 0.24, -76.52 142.58 80
9 07/03/2019 06:11:12 -0.01, -75.27 -0.77, -71.99 374.87 80
10 07/04/2019 18:33:08 0.00, -75.29 -0.44, -77.29 227.83 80




NCC Satellite Simultaneous Nadir Overpasses (SNOs) Prediction Service
